Regional Weather Roundup
Issued by NWS Austin/San Antonio, TX

Current Version | Previous Version | Text Only | Print | Product List | Glossary On
Versions: 1 2 3 4 5 6 7 8 9 10 11 12 13 14 15 16 17 18 19 20 21 22 23 24 25 26 27 28 29 30 31 32 33 34 35 36 37 38 39 40 41 42 43 44 45 46 47 48 49 50
000
ASUS44 KEWX 291501
RWREWX
SOUTH TEXAS REGIONAL WEATHER ROUNDUP
NATIONAL WEATHER SERVICE AUSTIN/SAN ANTONIO TX
1000 AM CDT THU SEP 29 2022

NOTE: "FAIR" INDICATED FEW OR NO CLOUDS BELOW 12,000 FEET WITH NO
SIGNIFICANT WEATHER AND/OR OBSTRUCTIONS TO VISIBILITY.

* - THESE STATIONS ARE NOT NWS OR FAA STATIONS...AND ARE NOT SUBJECT
    TO NWS AND FAA QUALITY CONTROL.

TXZ171-172-183>190-291600-
TEXAS HILL COUNTRY AND EDWARDS PLATEAU

CITY           SKY/WX    TMP DP  RH WIND       PRES   REMARKS
JUNCTION       SUNNY     68  50  52 CALM      30.29R
*LLANO         SUNNY     70  48  46 CALM      30.26S
BURNET         SUNNY     77  50  38 NW5       30.28R
*HORSESHOE BAY SUNNY     74  45  36 CALM      30.26S
*LAGO VISTA      N/A     76  47  36 E5        30.27R
*KERRVILLE     SUNNY     69  49  48 CALM      30.27R
*FREDERICKSBRG SUNNY     68  49  50 CALM      30.27S
*ROCKSPRINGS   SUNNY     70  52  52 W8        30.34R
*BOERNE        SUNNY     72  48  43 CALM      30.26S
HONDO          SUNNY     75  52  44 NW5       30.25R
*UVALDE        SUNNY     73  56  53 W7        30.27S
DEL RIO        SUNNY     73  54  51 CALM      30.24R
*LAUGHLIN AFB  SUNNY     71  57  60 NE5       30.22S
*SPOFFORD      SUNNY     74  57  54 SE6       30.23S
CARRIZO SPRGS  SUNNY     70  55  60 CALM      30.23R
*FAITH RANCH   SUNNY     77  59  53 SW7       30.25S
$$

TXZ173-191>194-202-209-217>225-228-291600-
CENTRAL AND SOUTH CENTRAL TEXAS

CITY           SKY/WX    TMP DP  RH WIND       PRES   REMARKS
GEORGETOWN     SUNNY     74  50  42 CALM      30.27S
*TAYLOR        SUNNY     74  51  44 SE10      30.25S
AUSTIN/BERGSTM SUNNY     73  51  46 CALM      30.24S
AUSTIN/MABRY   SUNNY     76  49  38 CALM      30.25S
*PFLUGERVILLE  SUNNY     75  48  38 SE9       30.24S
SAN MARCOS     SUNNY     75  48  38 NE6       30.26
NEW BRAUNFELS  SUNNY     89  51  27 NE8       30.22S
*RANDOLPH AFB  SUNNY     77  47  34 N3        30.20S
*SEGUIN        SUNNY     74  51  43 E5        30.22R
SAN ANTONIO    SUNNY     77  51  40 NW5       30.24S
STINSON FIELD  SUNNY     79  54  41 W7        30.21S
*KELLY FIELD   SUNNY     78  52  40 W3        30.21S
*PLEASANTON    SUNNY     74  56  52 CALM      30.24S
*KENEDY        SUNNY     74  58  55 N5        30.24S
*LA GRANGE     NOT AVBL
*GIDDINGS      SUNNY     74  48  39 E10       30.26S
*GONZALES      SUNNY     76  55  47 E7        30.23S
$$

TXZ163>164-176>182-195>201-210>213-226-227-235-291600-
SOUTHEAST TEXAS

CITY           SKY/WX    TMP DP  RH WIND       PRES   REMARKS
COLLEGE STN    SUNNY     71  45  39 E10       30.27R
*BRYAN         SUNNY     70  50  50 E8        30.29S
*CALDWELL      SUNNY     71  46  41 E9        30.27S
*CROCKETT      SUNNY     66  37  34 NE7       30.28S
*BRENHAM       SUNNY     72  45  37 E8          N/A
HUNTSVILLE     SUNNY     71  47  42 E3        30.27R
CONROE         SUNNY     69  42  37 E9        30.27R
HOUSTON BUSH   SUNNY     70  43  37 E9        30.25R
HOUSTON HOBBY  SUNNY     72  41  32 E13       30.23S
*HOUSTON SW AP NOT AVBL
PEARLAND       SUNNY     72  45  37 E10G21    30.24R
HOUSTON HOOKS  SUNNY     70  46  42 NE7       30.26R
ELLINGTON FLD  SUNNY     72  43  35 NE12      30.23R
SUGAR LAND     SUNNY     73  46  38 NE8       30.23S
*HOUSTON EXEC  SUNNY     72  46  40 E8        30.26S
*CLEVELAND MUN NOT AVBL
*WHARTON       SUNNY     74  47  38 NE9       30.24S
*COLUMBUS      FAIR      73  50  44 NE5       30.25S
*EAGLE LAKE    SUNNY     73  50  45 MISG      30.24
$$

TXZ214>216-236>238-291600-
THE UPPER TEXAS COAST

CITY           SKY/WX    TMP DP  RH WIND       PRES   REMARKS
*ORANGE        SUNNY     69  44  39 NE9       30.25S
PORT ARTHUR    SUNNY     67  44  43 NE13      30.22S
GALVESTON      SUNNY     73  53  49 NE12      30.22R
ANGLETON       SUNNY     74  52  46 NE10      30.22R
*BAY CITY      SUNNY     71  55  58 NE9       30.22S
PALACIOS       SUNNY     76  57  51 NE12      30.21R
$$

TXZ229>234-239>247-291600-
TEXAS COASTAL BEND AND RIO GRANDE PLAINS

CITY           SKY/WX    TMP DP  RH WIND       PRES   REMARKS
VICTORIA       SUNNY     75  59  57 NE5       30.22S
*BEEVILLE      SUNNY     75  60  59 CALM      30.22R
ROCKPORT       SUNNY     78  64  61 N9        30.21R
*PORT ARANSAS  SUNNY    N/A N/A N/A N14       30.22S
*PORT LAVACA   SUNNY     78  56  46 NE12      30.21F
*INGLESIDE     NOT AVBL
CORPUS CHRISTI SUNNY     78  65  63 N9        30.21R
CORPUS NAS     MOSUNNY   80  66  62 N14       30.21R
*ROBSTOWN      SUNNY     75  63  65 MISG      30.22R
ALICE          SUNNY     76  64  66 NW5       30.21R
KINGSVILLE NAS MOSUNNY   77  65  66 N5        30.21R
COTULLA        SUNNY     77  59  53 NW5       30.23S
LAREDO         SUNNY     75  62  64 VRB3      30.23R
$$

TXZ248>255-291600-
DEEP SOUTH TEXAS

CITY           SKY/WX    TMP DP  RH WIND       PRES   REMARKS
BROWNSVILLE    SUNNY     80  66  62 N9        30.17S
PORT ISABEL    MOSUNNY   80  65  59 NW13      30.17S
HARLINGEN      SUNNY     78  67  68 NW12      30.18R
*HEBBRONVILLE  SUNNY     76  63  64 CALM      30.23R
MCALLEN        SUNNY     76  64  66 W5        30.21R
*WESLACO       SUNNY     74  65  74 NW6       30.19
FALFURRIAS     SUNNY     77  64  65 N5        30.20R
EDINBURG       SUNNY     75  65  73 N6        30.20S
*ZAPATA        SUNNY     78  64  61 W3        30.23S
$$

TXZ213>215-236>238-242>244-246-247-251-254-255-291600-
CMAN STATIONS

STATION/POSITION TIME  TEMP    WIND        PRES    WAVE
                       AIR SEA DIR/SP/G            HT/PER
                 (UTC) (F)     (DEG/KT/KT) (MB)    (FT/S)
SEA RIM ST PARK  1400   66      50/ 15/ 19 1023.1
NORTH JETTY/GLS  1418   67 78   70/ 15/ 20 1021.8
EAGLE POINT      1424   68 76   50/ 14/ 16 1022.9
MORGANS POINT    1424   68 80   40/  9/ 13 1023.1
MISSION/ARANSAS  1400   70      30/ 12     1023.0
PORT O`CONNOR    1424   74 83  340/ 11/ 13 1022.4
PORT ARANSAS     1400   75     360/ 10/ 12   N/A
BAFFIN BAY       1424   71 80  320/  9/ 10 1022.8
PORT ISABEL      1424   76 82  330/  8/ 12 1020.9
$$



USA.gov is the U.S. government's official web portal to all federal, state and local government web resources and services.